Location: Newark
(47.8839°N, 8.3436°E)
Time: 19:22:49
(UTC+00:00)

Envisat - Visible Passes

Search period start: 16 October 2019 00:00
Search period end: 26 October 2019 00:00
Orbit: 764 x 766 km, 98.1° (Epoch: 16 October)

Date Brightness Start Highest point End Pass type
(mag) Time Alt. Az. Time Alt. Az. Time Alt. Az.
16 Oct 5.0 18:20:42 10° SSW 18:25:08 30° W 18:29:37 10° NNW visible
17 Oct 3.6 17:43:09 10° S 17:48:11 62° W 17:53:15 10° NNW visible
18 Oct 3.0 17:06:23 10° SSE 17:11:24 65° ENE 17:16:28 10° N visible
18 Oct 5.7 18:47:25 10° SW 18:50:54 18° W 18:54:25 10° NW visible
19 Oct 6.1 05:12:49 10° NE 05:16:12 18° E 05:19:33 10° SE visible
19 Oct 4.6 18:09:07 10° SSW 18:13:48 37° W 18:18:31 10° NNW visible
20 Oct 3.2 17:31:49 10° S 17:36:54 77° WSW 17:42:00 10° NNW visible
20 Oct 6.3 19:15:39 10° W 19:16:46 11° W 19:17:54 10° WNW visible
21 Oct 3.1 16:55:16 10° SE 17:00:11 53° ENE 17:05:08 10° N visible
21 Oct 5.4 18:35:33 10° SW 18:39:31 23° W 18:43:31 10° NW visible
22 Oct 6.3 05:02:08 10° NE 05:04:47 14° E 05:07:25 10° ESE visible
22 Oct 4.1 17:57:36 10° S 18:02:28 46° W 18:07:22 10° NNW visible
23 Oct 3.0 17:20:33 10° SSE 17:25:37 87° ENE 17:30:45 10° NNW visible
23 Oct 6.1 19:02:51 10° WSW 19:05:21 14° W 19:07:52 10° WNW visible
24 Oct 5.9 05:26:33 10° NE 05:30:37 23° E 05:34:38 10° SE visible
24 Oct 3.4 16:44:12 10° SE 16:48:59 43° ENE 16:53:46 10° N visible
24 Oct 5.1 18:23:50 10° SSW 18:28:09 28° W 18:32:31 10° NW visible
25 Oct 6.6 04:51:55 10° ENE 04:53:21 11° E 04:54:47 10° ESE visible
25 Oct 3.7 17:46:11 10° S 17:51:10 57° W 17:56:12 10° NNW visible
